Stations météo

réclame
Mon MeteoGroup
Harsfjarden, Suède (2489): Température de l'air & dewpoint: 14.01.2020 08:00:00 - 20.01.2020 08:00:00 (CET)Harsfjarden, Suède (2489): Vitesse du vent & gusts: 14.01.2020 08:00:00 - 20.01.2020 08:00:00 (CET)Harsfjarden, Suède (2489): Direction du vent: 14.01.2020 08:00:00 - 20.01.2020 08:00:00 (CET)Harsfjarden, Suède (2489): reduced air pressure: 14.01.2020 08:00:00 - 20.01.2020 08:00:00 (CET)Harsfjarden, Suède (2489): visibility: 14.01.2020 08:00:00 - 20.01.2020 08:00:00 (CET)Harsfjarden, Suède (2489): Quantités de précipitations: 14.01.2020 08:00:00 - 20.01.2020 08:00:00 (CET)
Date & Time tt [°C] td [°C] ff [km/h] ff [knt] fx [km/h] fx [knt] dd ppp [hPa] vv [km] rr [mm]
20.01.2020 08:00:00 - - - - - - - - - -
20.01.2020 07:00:00 1,2 -1,5 11 6 14 8 SW 1030,3 50 0,0
20.01.2020 06:00:00 1,2 -1,7 7 4 14 8 SW 1030,9 50 0,0
20.01.2020 05:00:00 0,9 -2,0 7 4 11 6 WSW 1031,3 50 0,0
20.01.2020 04:00:00 0,4 -1,8 7 4 14 8 WSW 1031,8 50 0,0
20.01.2020 03:00:00 0,8 -1,6 11 6 18 10 WSW 1032,5 50 0,0
20.01.2020 02:00:00 0,9 -1,8 11 6 18 10 W 1032,9 50 0,0
20.01.2020 01:00:00 0,4 -2,0 11 6 14 8 W 1032,6 50 0,0
20.01.2020 00:00:00 0,5 -1,6 11 6 18 10 W 1032,5 50 0,0
19.01.2020 23:00:00 0,2 -1,7 11 6 18 10 W 1032,8 50 0,0
19.01.2020 22:00:00 0,8 -1,6 11 6 18 10 W 1032,1 50 0,0
19.01.2020 21:00:00 1,4 -1,3 11 6 22 12 W 1031,4 50 0,0
19.01.2020 20:00:00 2,2 -1,1 14 8 25 14 WNW 1031,3 50 0,0
19.01.2020 19:00:00 2,5 -0,6 14 8 25 14 WNW 1030,7 50 0,0
19.01.2020 18:00:00 2,8 -0,3 14 8 25 14 WNW 1030,0 50 0,0
19.01.2020 17:00:00 2,6 -0,5 7 4 14 8 W 1028,7 50 0,0
19.01.2020 16:00:00 4,0 -1,0 7 4 14 8 W 1027,8 45 0,0
19.01.2020 15:00:00 5,2 -0,2 7 4 14 8 WNW 1026,9 50 0,0
19.01.2020 14:00:00 5,4 0,6 7 4 18 10 WNW 1025,9 45 0,0
19.01.2020 13:00:00 5,2 0,9 11 6 22 12 WNW 1025,0 45 0,0
19.01.2020 12:00:00 5,0 0,8 11 6 22 12 WNW 1023,9 45 0,0
19.01.2020 11:00:00 3,4 1,1 11 6 22 12 W 1023,1 45 0,0
19.01.2020 10:00:00 2,6 1,1 11 6 25 14 W 1021,9 50 0,0
19.01.2020 09:00:00 2,2 1,3 14 8 22 12 W 1021,0 50 0,0
19.01.2020 08:00:00 2,4 1,7 11 6 22 12 WNW 1019,3 50 0,0
19.01.2020 07:00:00 3,2 2,2 14 8 22 12 WNW 1017,8 50 0,0
19.01.2020 06:00:00 3,9 2,4 14 8 22 12 WNW 1016,5 50 0,0
19.01.2020 05:00:00 4,7 3,0 11 6 22 12 WNW 1015,1 50 0,0
19.01.2020 04:00:00 5,2 3,5 11 6 22 12 W 1013,7 50 0,0
19.01.2020 03:00:00 5,3 4,0 11 6 22 12 W 1012,5 50 0,0
19.01.2020 02:00:00 4,9 4,0 7 4 18 10 W 1011,2 50 0,0
19.01.2020 01:00:00 4,9 3,6 11 6 18 10 WSW 1010,2 35 0,0
19.01.2020 00:00:00 4,8 3,5 7 4 22 12 WSW 1009,4 50 0,0
18.01.2020 23:00:00 4,8 3,5 14 8 22 12 SW 1008,8 50 0,0
18.01.2020 22:00:00 5,0 3,3 14 8 29 16 SW 1008,5 30 0,0
18.01.2020 21:00:00 5,1 3,3 18 10 32 18 SW 1008,0 50 0,0
18.01.2020 20:00:00 5,2 3,2 18 10 32 18 SW 1007,7 50 0,0
18.01.2020 19:00:00 5,3 3,1 18 10 32 18 SW 1007,7 50 0,0
18.01.2020 18:00:00 5,6 3,1 18 10 32 18 SSW 1007,5 50 0,0
18.01.2020 17:00:00 5,9 3,1 18 10 25 14 SSW 1007,4 50 0,0
18.01.2020 16:00:00 5,7 3,9 14 8 22 12 SSW 1007,3 45 0,0
18.01.2020 15:00:00 5,6 4,9 11 6 22 12 SSW 1007,3 35 0,0
18.01.2020 14:00:00 5,8 5,1 14 8 22 12 SSW 1007,1 21 0,0
18.01.2020 13:00:00 5,6 4,9 14 8 22 12 SW 1007,3 21 0,0
18.01.2020 12:00:00 5,4 4,7 11 6 22 12 SW 1007,2 15 0,0
18.01.2020 11:00:00 5,1 4,5 14 8 25 14 SW 1007,1 10 0,0
18.01.2020 10:00:00 4,7 4,3 14 8 22 12 SW 1007,2 8 0,0
18.01.2020 09:00:00 4,3 4,0 14 8 25 14 SW 1006,7 7 0,0
18.01.2020 08:00:00 4,1 3,5 11 6 32 18 SSW 1007,0 11 0,0
18.01.2020 07:00:00 4,0 3,4 18 10 36 19 SW 1007,2 11 0,0
18.01.2020 06:00:00 3,9 3,6 22 12 40 21 SSW 1007,3 8 0,0
18.01.2020 05:00:00 4,4 3,8 22 12 36 19 SSW 1008,1 8 0,0
18.01.2020 04:00:00 4,7 4,1 18 10 43 23 SSW 1008,6 11 0,0
18.01.2020 03:00:00 4,6 4,0 25 14 40 21 SSW 1009,2 11 0,0
18.01.2020 02:00:00 4,7 4,1 25 14 40 21 SSW 1009,4 12 0,0
18.01.2020 01:00:00 4,8 4,2 25 14 40 21 SSW 1010,4 14 0,0
18.01.2020 00:00:00 4,9 4,5 25 14 40 21 SSW 1011,3 12 0,0
17.01.2020 23:00:00 5,1 4,7 22 12 32 18 SSW 1012,3 12 0,0
17.01.2020 22:00:00 5,3 4,9 22 12 36 19 SSW 1013,1 15 0,0
17.01.2020 21:00:00 5,4 5,0 18 10 29 16 SSW 1013,5 13 0,0
17.01.2020 20:00:00 5,5 5,2 18 10 29 16 SSW 1014,0 11 0,0
17.01.2020 19:00:00 4,7 4,7 14 8 32 18 SSW 1014,7 6 0,0
17.01.2020 18:00:00 4,7 4,6 25 14 32 18 S 1015,0 6 0,0
17.01.2020 17:00:00 4,8 4,5 14 8 25 14 SSW 1015,2 13 0,0
17.01.2020 16:00:00 5,1 4,5 18 10 29 16 SSW 1015,6 14 0,0
17.01.2020 15:00:00 4,7 4,4 11 6 32 18 SW 1016,2 13 0,0
17.01.2020 14:00:00 4,5 4,5 25 14 32 18 SSW 1016,8 8 0,0
17.01.2020 13:00:00 4,7 4,6 22 12 32 18 SSW 1017,2 9 0,0
17.01.2020 12:00:00 4,7 4,4 18 10 36 19 SW 1017,8 8 0,0
17.01.2020 11:00:00 5,1 4,7 18 10 36 19 SW 1018,4 18 0,0
17.01.2020 10:00:00 4,9 3,9 18 10 32 18 SSW 1018,7 25 0,0
17.01.2020 09:00:00 4,4 3,2 14 8 29 16 SW 1018,9 30 0,0
17.01.2020 08:00:00 4,4 3,2 18 10 25 14 SSW 1019,3 30 0,0
17.01.2020 07:00:00 4,4 3,4 11 6 22 12 SSW 1019,4 29 0,0
17.01.2020 06:00:00 4,0 3,3 11 6 22 12 SSW 1019,8 22 0,0
17.01.2020 05:00:00 4,0 3,1 14 8 22 12 SSW 1019,9 24 0,0
17.01.2020 04:00:00 3,7 2,5 7 4 14 8 WSW 1020,3 24 0,0
17.01.2020 03:00:00 4,2 2,7 7 4 22 12 WSW 1020,2 24 0,0
17.01.2020 02:00:00 4,3 2,8 14 8 22 12 WSW 1020,5 23 0,0
17.01.2020 01:00:00 4,1 2,6 11 6 18 10 WSW 1020,3 21 0,0
17.01.2020 00:00:00 4,0 2,4 7 4 14 8 WSW 1020,2 21 0,0
16.01.2020 23:00:00 4,5 2,4 11 6 18 10 WSW 1019,6 22 0,0
16.01.2020 22:00:00 5,0 2,4 11 6 18 10 WSW 1019,2 23 0,0
16.01.2020 21:00:00 5,4 2,4 7 4 25 14 WSW 1018,3 23 0,0
16.01.2020 20:00:00 6,1 2,7 14 8 29 16 WSW 1017,6 23 0,0
16.01.2020 19:00:00 6,5 3,1 18 10 32 18 WSW 1016,7 22 0,0
16.01.2020 18:00:00 6,7 3,5 14 8 25 14 W 1015,9 22 0,0
16.01.2020 17:00:00 7,1 3,7 14 8 32 18 WSW 1014,9 24 0,0
16.01.2020 16:00:00 7,7 3,7 18 10 40 21 W 1013,9 25 0,0
16.01.2020 15:00:00 8,1 4,1 18 10 40 21 W 1012,7 22 0,0
16.01.2020 14:00:00 8,4 4,2 18 10 47 25 W 1011,6 24 0,0
16.01.2020 13:00:00 8,4 4,4 25 14 43 23 W 1010,7 30 0,0
16.01.2020 12:00:00 7,9 4,5 18 10 32 18 WSW 1010,1 30 0,0
16.01.2020 11:00:00 7,2 4,0 14 8 29 16 WSW 1009,6 27 0,0
16.01.2020 10:00:00 6,7 3,5 14 8 29 16 WSW 1009,0 27 0,0
16.01.2020 09:00:00 6,1 3,3 18 10 32 18 SW 1008,1 26 0,0
16.01.2020 08:00:00 5,6 2,8 14 8 32 18 WSW 1007,6 30 0,0
16.01.2020 07:00:00 5,0 2,9 18 10 32 18 SW 1007,0 30 0,0
16.01.2020 06:00:00 4,8 2,8 18 10 25 14 SW 1006,4 40 0,0
16.01.2020 05:00:00 4,9 2,9 14 8 29 16 SW 1006,1 45 0,0
16.01.2020 04:00:00 5,1 3,0 18 10 25 14 SW 1005,4 50 0,0
16.01.2020 03:00:00 5,1 3,0 14 8 29 16 WSW 1004,9 45 0,0
16.01.2020 02:00:00 5,4 3,2 14 8 25 14 WSW 1004,4 50 0,0
16.01.2020 01:00:00 6,2 3,0 14 8 25 14 SW 1003,7 50 0,0
16.01.2020 00:00:00 6,4 2,8 14 8 32 18 SW 1002,9 50 0,0
15.01.2020 23:00:00 6,4 3,9 11 6 22 12 SW 1002,7 45 0,0
15.01.2020 22:00:00 6,5 4,5 14 8 25 14 SW 1002,2 45 0,0
15.01.2020 21:00:00 6,4 4,6 11 6 18 10 SW 1002,4 45 0,0
15.01.2020 20:00:00 6,6 4,4 11 6 14 8 SSW 1001,8 50 0,0
15.01.2020 19:00:00 7,2 4,2 7 4 14 8 WSW 1001,6 50 0,0
15.01.2020 18:00:00 5,5 4,1 0 0 18 10 N 1000,9 50 0,0
15.01.2020 17:00:00 7,7 4,6 11 6 22 12 WSW 1000,2 45 0,0
15.01.2020 16:00:00 8,4 5,3 11 6 36 19 WSW 999,2 50 0,0
15.01.2020 15:00:00 9,0 5,7 22 12 36 19 WSW 998,0 45 0,0
15.01.2020 14:00:00 8,8 8,0 11 6 25 14 WSW 996,8 50 0,0
15.01.2020 13:00:00 8,2 7,8 18 10 32 18 SW 996,2 35 0,1
15.01.2020 12:00:00 8,4 7,6 14 8 36 19 WSW 995,7 9 0,3
15.01.2020 11:00:00 9,1 7,4 18 10 36 19 SW 994,7 50 0,0
15.01.2020 10:00:00 8,9 7,2 22 12 36 19 SW 993,9 50 0,0
15.01.2020 09:00:00 8,9 7,3 22 12 32 18 SW 993,1 50 0,0
15.01.2020 08:00:00 8,1 7,0 14 8 43 23 SSW 992,3 50 0,0
15.01.2020 07:00:00 7,8 6,9 25 14 50 27 SSW 991,7 45 0,0
15.01.2020 06:00:00 7,4 6,7 25 14 47 25 SSW 991,9 40 0,0
15.01.2020 05:00:00 6,8 6,4 32 18 50 27 SSW 992,6 21 0,0
15.01.2020 04:00:00 6,1 6,0 32 18 58 31 SSW 993,5 20 0,6
15.01.2020 03:00:00 4,9 4,9 22 12 40 21 S 995,3 2,8 2,0
15.01.2020 02:00:00 5,1 4,7 22 12 29 16 S 997,7 21 0,0
15.01.2020 01:00:00 5,0 4,4 18 10 25 14 S 998,6 23 0,0
15.01.2020 00:00:00 5,1 4,2 14 8 22 12 SW 999,7 28 0,0
14.01.2020 23:00:00 4,9 4,3 14 8 25 14 SW 1000,0 35 0,0
14.01.2020 22:00:00 5,0 4,4 18 10 32 18 SW 999,7 40 0,0
14.01.2020 21:00:00 4,8 4,2 18 10 25 14 SW 999,1 45 0,0
14.01.2020 20:00:00 4,6 4,2 18 10 25 14 SSW 998,7 45 0,0
14.01.2020 19:00:00 4,8 4,5 18 10 32 18 SW 998,3 40 0,0
14.01.2020 18:00:00 5,0 4,6 22 12 36 19 SW 997,8 25 0,0
14.01.2020 17:00:00 5,1 4,7 22 12 36 19 SW 997,8 22 0,0
14.01.2020 16:00:00 5,0 4,7 25 14 47 25 SSW 997,5 15 0,3
14.01.2020 15:00:00 4,8 4,5 36 19 61 33 SSW 998,0 6 2,0
14.01.2020 14:00:00 4,8 4,4 40 21 65 35 S 998,4 4,8 1,0
14.01.2020 13:00:00 5,1 4,1 36 19 65 35 S 999,2 16 0,0
14.01.2020 12:00:00 5,0 3,8 40 21 68 37 S 1000,5 25 0,0
14.01.2020 11:00:00 5,1 3,6 43 23 68 37 S 1002,0 30 0,0
14.01.2020 10:00:00 5,1 3,8 36 19 61 33 S 1002,8 25 0,0
14.01.2020 09:00:00 4,9 3,9 32 18 50 27 S 1004,2 30 0,0
14.01.2020 08:00:00 4,8 3,9 36 19 54 29 S 1004,8 27 0,0

tt = Température de l'air
td = dewpoint
ff = Vitesse du vent
fx = gusts
dd = Direction du vent
ppp = reduced air pressure
vv = visibility
rr = Quantités de précipitations

stations d'obs. à proximité